• In Uzbekistan
  • List of Countries
  • For 7 days
  • Water Temperature
  • Satellite Maps
  • Weather Map
  • Weather Widgets
  • user-avatar
    Login

    Hourly Weather Yulara

    Today, 23 November, Thursday

    Time Temperature Precipitation Wind Pressure Humidity
    00:00 +28°C° 0 mm 10 mps 714 mmHg 40%
    01:00 +27°C° 0 mm 10 mps 714 mmHg 44%
    02:00 +24°C° 0 mm 9 mps 714 mmHg 48%
    03:00 +23°C° 0 mm 9 mps 714 mmHg 52%
    04:00 +23°C° 0 mm 9 mps 714 mmHg 52%
    05:00 +22°C° 0 mm 8 mps 714 mmHg 52%
    06:00 +22°C° 0 mm 8 mps 715 mmHg 52%
    07:00 +23°C° 0 mm 8 mps 715 mmHg 46%
    08:00 +26°C° 0 mm 8 mps 716 mmHg 40%
    09:00 +28°C° 0 mm 8 mps 716 mmHg 33%
    10:00 +29°C° 0 mm 7 mps 716 mmHg 31%
    11:00 +32°C° 0 mm 6 mps 715 mmHg 28%
    12:00 +33°C° 0 mm 5 mps 715 mmHg 25%
    13:00 +34°C° 0 mm 5 mps 715 mmHg 24%
    14:00 +35°C° 0 mm 4 mps 714 mmHg 22%
    15:00 +35°C° 0 mm 3 mps 714 mmHg 21%
    16:00 +35°C° 0 mm 4 mps 714 mmHg 21%
    17:00 +35°C° 0 mm 4 mps 714 mmHg 21%
    18:00 +35°C° 0 mm 5 mps 714 mmHg 20%
    19:00 +33°C° 0 mm 6 mps 714 mmHg 22%
    20:00 +32°C° 0 mm 7 mps 714 mmHg 24%
    21:00 +29°C° 0 mm 9 mps 714 mmHg 27%
    22:00 +28°C° 0 mm 9 mps 714 mmHg 31%
    23:00 +27°C° 0 mm 9 mps 715 mmHg 35%

    Tomorrow, 24 November, Friday

    Time Temperature Precipitation Wind Pressure Humidity
    00:00 +26°C° 0 mm 9 mps 715 mmHg 39%
    01:00 +24°C° 0 mm 8 mps 715 mmHg 41%
    02:00 +24°C° 0 mm 8 mps 715 mmHg 44%
    03:00 +23°C° 0 mm 7 mps 715 mmHg 46%
    04:00 +23°C° 0 mm 7 mps 716 mmHg 48%
    05:00 +22°C° 0 mm 7 mps 716 mmHg 49%
    06:00 +22°C° 0 mm 6 mps 716 mmHg 50%
    07:00 +24°C° 0 mm 6 mps 716 mmHg 45%
    08:00 +27°C° 0 mm 6 mps 717 mmHg 40%
    09:00 +28°C° 0 mm 6 mps 717 mmHg 35%
    10:00 +30°C° 0 mm 6 mps 716 mmHg 32%
    11:00 +33°C° 0 mm 5 mps 716 mmHg 28%
    12:00 +34°C° 0 mm 5 mps 716 mmHg 25%
    13:00 +35°C° 0 mm 4 mps 715 mmHg 22%
    14:00 +36°C° 0 mm 3 mps 714 mmHg 20%
    15:00 +37°C° 0 mm 2 mps 714 mmHg 17%
    16:00 +37°C° 0 mm 2 mps 714 mmHg 17%
    17:00 +37°C° 0 mm 2 mps 714 mmHg 16%
    18:00 +37°C° 0 mm 2 mps 714 mmHg 16%
    19:00 +37°C° 0 mm 3 mps 714 mmHg 17%
    20:00 +36°C° 0 mm 4 mps 714 mmHg 18%
    21:00 +35°C° 0 mm 5 mps 714 mmHg 19%
    22:00 +34°C° 0 mm 6 mps 714 mmHg 21%
    23:00 +33°C° 0 mm 6 mps 714 mmHg 23%

    Day after tomorrow, 25 November, Saturday

    Time Temperature Precipitation Wind Pressure Humidity
    00:00 +32°C° 0 mm 7 mps 714 mmHg 25%
    01:00 +30°C° 0 mm 7 mps 714 mmHg 26%
    02:00 +30°C° 0 mm 7 mps 714 mmHg 27%
    03:00 +29°C° 0 mm 7 mps 714 mmHg 27%
    04:00 +29°C° 0 mm 7 mps 714 mmHg 28%
    05:00 +29°C° 0 mm 7 mps 714 mmHg 29%
    06:00 +28°C° 0 mm 7 mps 714 mmHg 29%
    07:00 +30°C° 0.1 mm 7 mps 715 mmHg 29%
    08:00 +33°C° 0.1 mm 8 mps 715 mmHg 29%
    09:00 +35°C° 0.1 mm 8 mps 715 mmHg 29%
    10:00 +36°C° 0.1 mm 7 mps 715 mmHg 28%
    11:00 +38°C° 0.1 mm 7 mps 714 mmHg 27%
    12:00 +40°C° 0.1 mm 6 mps 714 mmHg 25%
    13:00 +40°C° 0 mm 6 mps 713 mmHg 25%
    14:00 +40°C° 0 mm 6 mps 712 mmHg 25%
    15:00 +40°C° 0 mm 6 mps 712 mmHg 25%
    16:00 +36°C° 3.7 mm 7 mps 711 mmHg 34%
    17:00 +34°C° 3.7 mm 7 mps 711 mmHg 44%
    18:00 +31°C° 3.7 mm 8 mps 711 mmHg 54%
    19:00 +29°C° 8.4 mm 6 mps 712 mmHg 59%
    20:00 +28°C° 8.4 mm 5 mps 713 mmHg 65%
    21:00 +26°C° 8.4 mm 3 mps 714 mmHg 70%
    22:00 +26°C° 0.2 mm 3 mps 714 mmHg 70%
    23:00 +26°C° 0.2 mm 4 mps 714 mmHg 71%

    26 November, Sunday

    Time Temperature Precipitation Wind Pressure Humidity
    00:00 +26°C° 0.2 mm 4 mps 715 mmHg 71%
    01:00 +26°C° 0 mm 3 mps 714 mmHg 71%
    02:00 +26°C° 0 mm 2 mps 714 mmHg 71%
    03:00 +26°C° 0 mm 1 mps 713 mmHg 71%
    04:00 +25°C° 0 mm 1 mps 714 mmHg 72%
    05:00 +25°C° 0 mm 2 mps 714 mmHg 73%
    06:00 +25°C° 0 mm 2 mps 714 mmHg 73%
    07:00 +26°C° 0 mm 2 mps 714 mmHg 68%
    08:00 +28°C° 0 mm 2 mps 715 mmHg 62%
    09:00 +29°C° 0 mm 3 mps 715 mmHg 57%
    10:00 +30°C° 0 mm 2 mps 715 mmHg 52%
    11:00 +31°C° 0 mm 1 mps 714 mmHg 48%
    12:00 +32°C° 0 mm 1 mps 714 mmHg 44%
    13:00 +32°C° 0 mm 1 mps 714 mmHg 41%
    14:00 +34°C° 0 mm 2 mps 713 mmHg 38%
    15:00 +35°C° 0 mm 2 mps 713 mmHg 35%
    16:00 +35°C° 0 mm 3 mps 713 mmHg 35%
    17:00 +35°C° 0 mm 4 mps 713 mmHg 34%
    18:00 +35°C° 0 mm 5 mps 713 mmHg 34%
    19:00 +34°C° 0 mm 6 mps 713 mmHg 36%
    20:00 +33°C° 0 mm 7 mps 713 mmHg 39%
    21:00 +32°C° 0 mm 8 mps 713 mmHg 41%
    22:00 +32°C° 0 mm 8 mps 713 mmHg 44%
    23:00 +31°C° 0 mm 8 mps 714 mmHg 46%

    27 November, Monday

    Time Temperature Precipitation Wind Pressure Humidity
    00:00 +31°C° 0 mm 8 mps 714 mmHg 49%
    01:00 +29°C° 0.6 mm 8 mps 714 mmHg 51%
    02:00 +28°C° 0.6 mm 7 mps 713 mmHg 53%
    03:00 +27°C° 0.6 mm 7 mps 713 mmHg 55%
    04:00 +27°C° 0.5 mm 6 mps 714 mmHg 55%
    05:00 +27°C° 0.5 mm 4 mps 714 mmHg 55%
    06:00 +26°C° 0.5 mm 3 mps 714 mmHg 56%
    07:00 +27°C° 0 mm 3 mps 715 mmHg 54%
    08:00 +28°C° 0 mm 3 mps 715 mmHg 52%
    09:00 +28°C° 0 mm 3 mps 715 mmHg 50%
    10:00 +29°C° 0 mm 3 mps 715 mmHg 47%
    11:00 +31°C° 0 mm 3 mps 714 mmHg 43%
    12:00 +33°C° 0 mm 4 mps 714 mmHg 40%
    13:00 +33°C° 0 mm 4 mps 713 mmHg 38%
    14:00 +34°C° 0 mm 4 mps 712 mmHg 35%
    15:00 +35°C° 0 mm 4 mps 712 mmHg 33%
    16:00 +34°C° 0 mm 4 mps 712 mmHg 33%
    17:00 +34°C° 0 mm 4 mps 712 mmHg 33%
    18:00 +34°C° 0 mm 4 mps 712 mmHg 33%
    19:00 +34°C° 0 mm 4 mps 713 mmHg 35%
    20:00 +33°C° 0 mm 4 mps 713 mmHg 36%
    21:00 +32°C° 0 mm 4 mps 713 mmHg 38%
    22:00 +32°C° 0 mm 5 mps 713 mmHg 39%
    23:00 +30°C° 0 mm 5 mps 713 mmHg 41%

    28 November, Tuesday

    Time Temperature Precipitation Wind Pressure Humidity
    00:00 +29°C° 0 mm 6 mps 713 mmHg 43%
    01:00 +29°C° 0 mm 5 mps 713 mmHg 46%
    02:00 +28°C° 0 mm 5 mps 713 mmHg 49%
    03:00 +28°C° 0 mm 5 mps 713 mmHg 52%
    04:00 +27°C° 0 mm 4 mps 713 mmHg 55%
    05:00 +27°C° 0 mm 4 mps 713 mmHg 58%
    06:00 +27°C° 0 mm 4 mps 714 mmHg 61%
    07:00 +28°C° 0 mm 4 mps 714 mmHg 55%
    08:00 +30°C° 0 mm 4 mps 714 mmHg 48%
    09:00 +32°C° 0 mm 4 mps 714 mmHg 42%
    10:00 +34°C° 0 mm 4 mps 714 mmHg 37%
    11:00 +35°C° 0 mm 3 mps 714 mmHg 32%
    12:00 +36°C° 0 mm 2 mps 713 mmHg 27%
    13:00 +37°C° 0 mm 2 mps 713 mmHg 24%
    14:00 +37°C° 0 mm 1 mps 712 mmHg 22%
    15:00 +39°C° 0 mm 1 mps 712 mmHg 20%
    16:00 +39°C° 0 mm 1 mps 712 mmHg 20%
    17:00 +39°C° 0 mm 2 mps 712 mmHg 20%
    18:00 +39°C° 0 mm 2 mps 712 mmHg 20%
    19:00 +38°C° 0 mm 3 mps 713 mmHg 21%
    20:00 +37°C° 0 mm 3 mps 713 mmHg 22%
    21:00 +36°C° 0 mm 3 mps 713 mmHg 24%
    22:00 +36°C° 0 mm 4 mps 713 mmHg 27%
    23:00 +35°C° 0 mm 4 mps 713 mmHg 31%
    Show more